Time,TemperatureF,DewpointF,PressureIn,WindDirection,WindDirectionDegrees,WindSpeedMPH,WindSpeedGustMPH,Humidity,HourlyPrecipIn,Conditions,Clouds,dailyrainin,SoftwareType,DateUTC
2013-05-08 00:00:00,65.2,47.5,29.99,SE,146,8.9,-999.0,52,0.00,,,0.00,SSEC-RIG,2013-05-08 05:00:00,
2013-05-08 00:05:00,64.9,45.4,29.99,SSE,151,9.5,-999.0,48,0.00,,,0.00,SSEC-RIG,2013-05-08 05:05:00,
2013-05-08 00:10:00,64.8,45.4,29.99,SSE,154,9.4,-999.0,49,0.00,,,0.00,SSEC-RIG,2013-05-08 05:10:00,
2013-05-08 00:15:00,64.8,46.1,29.99,SSE,152,9.6,-999.0,50,0.00,,,0.00,SSEC-RIG,2013-05-08 05:15:00,
2013-05-08 00:20:00,64.6,45.1,29.99,SSE,155,9.9,-999.0,48,0.00,,,0.00,SSEC-RIG,2013-05-08 05:20:00,
2013-05-08 00:25:00,64.3,45.0,29.99,SSE,156,9.8,-999.0,49,0.00,,,0.00,SSEC-RIG,2013-05-08 05:25:00,
2013-05-08 00:30:00,64.2,45.0,29.99,SSE,159,9.9,-999.0,49,0.00,,,0.00,SSEC-RIG,2013-05-08 05:30:00,
2013-05-08 00:40:00,64.1,44.7,29.99,SSE,162,10.0,-999.0,48,0.00,,,0.00,SSEC-RIG,2013-05-08 05:40:00,
2013-05-08 00:45:00,64.1,44.6,29.99,SSE,160,9.8,-999.0,48,0.00,,,0.00,SSEC-RIG,2013-05-08 05:45:00,
2013-05-08 00:50:00,64.0,44.6,29.99,SSE,161,9.9,-999.0,49,0.00,,,0.00,SSEC-RIG,2013-05-08 05:50:00,
2013-05-08 00:55:00,63.9,44.5,29.99,SSE,163,9.7,-999.0,48,0.00,,,0.00,SSEC-RIG,2013-05-08 05:55:00,
2013-05-08 01:05:00,63.6,44.2,29.99,SSE,164,9.2,-999.0,48,0.00,,,0.00,SSEC-RIG,2013-05-08 06:05:00,
2013-05-08 01:10:00,63.5,44.5,29.99,SSE,158,9.3,-999.0,49,0.00,,,0.00,SSEC-RIG,2013-05-08 06:10:00,
2013-05-08 01:15:00,63.5,44.3,29.98,SSE,159,9.2,-999.0,49,0.00,,,0.00,SSEC-RIG,2013-05-08 06:15:00,
2013-05-08 01:20:00,63.3,44.4,29.98,SSE,163,9.5,-999.0,49,0.00,,,0.00,SSEC-RIG,2013-05-08 06:20:00,
2013-05-08 01:25:00,63.1,44.4,29.98,SSE,165,9.2,-999.0,49,0.00,,,0.00,SSEC-RIG,2013-05-08 06:25:00,
2013-05-08 01:30:00,63.3,44.2,29.98,South,170,8.9,-999.0,49,0.00,,,0.00,SSEC-RIG,2013-05-08 06:30:00,
2013-05-08 01:35:00,63.3,44.1,29.98,South,173,8.7,-999.0,49,0.00,,,0.00,SSEC-RIG,2013-05-08 06:35:00,
2013-05-08 01:45:00,63.2,43.9,29.98,South,181,9.0,-999.0,49,0.00,,,0.00,SSEC-RIG,2013-05-08 06:45:00,
2013-05-08 01:50:00,63.2,43.9,29.98,South,183,9.5,-999.0,49,0.00,,,0.00,SSEC-RIG,2013-05-08 06:50:00,
2013-05-08 01:55:00,63.1,43.9,29.98,South,187,9.9,-999.0,49,0.00,,,0.00,SSEC-RIG,2013-05-08 06:55:00,
2013-05-08 02:00:00,63.2,43.7,29.98,South,189,10.0,-999.0,48,0.00,,,0.00,SSEC-RIG,2013-05-08 07:00:00,
2013-05-08 02:05:00,63.1,43.6,29.98,South,191,9.8,-999.0,48,0.00,,,0.00,SSEC-RIG,2013-05-08 07:05:00,
2013-05-08 02:10:00,63.0,43.6,29.98,South,191,9.9,-999.0,48,0.00,,,0.00,SSEC-RIG,2013-05-08 07:10:00,
2013-05-08 02:15:00,62.8,43.7,29.98,SSW,192,9.9,-999.0,49,0.00,,,0.00,SSEC-RIG,2013-05-08 07:15:00,
2013-05-08 02:20:00,62.7,43.7,29.98,South,190,10.8,-999.0,49,0.00,,,0.00,SSEC-RIG,2013-05-08 07:20:00,
2013-05-08 02:25:00,62.5,43.7,29.97,South,189,10.1,-999.0,49,0.00,,,0.00,SSEC-RIG,2013-05-08 07:25:00,
2013-05-08 02:30:00,62.2,43.7,29.98,South,189,9.9,-999.0,50,0.00,,,0.00,SSEC-RIG,2013-05-08 07:30:00,
2013-05-08 02:35:00,62.2,43.7,29.98,South,188,9.6,-999.0,50,0.00,,,0.00,SSEC-RIG,2013-05-08 07:35:00,
2013-05-08 02:40:00,62.0,43.7,29.98,South,189,8.8,-999.0,50,0.00,,,0.00,SSEC-RIG,2013-05-08 07:40:00,
2013-05-08 02:45:00,61.9,43.7,29.98,South,187,8.3,-999.0,51,0.00,,,0.00,SSEC-RIG,2013-05-08 07:45:00,
2013-05-08 02:55:00,61.6,43.7,29.98,South,183,7.9,-999.0,51,0.00,,,0.00,SSEC-RIG,2013-05-08 07:55:00,
2013-05-08 03:00:00,61.4,44.0,29.98,South,173,8.0,-999.0,52,0.00,,,0.00,SSEC-RIG,2013-05-08 08:00:00,
2013-05-08 03:05:00,61.3,43.8,29.98,SSE,168,7.9,-999.0,52,0.00,,,0.00,SSEC-RIG,2013-05-08 08:05:00,
2013-05-08 03:10:00,61.2,43.9,29.98,South,170,8.6,-999.0,52,0.00,,,0.00,SSEC-RIG,2013-05-08 08:10:00,
2013-05-08 03:15:00,61.3,43.7,29.98,SSE,167,8.5,-999.0,52,0.00,,,0.00,SSEC-RIG,2013-05-08 08:15:00,
2013-05-08 03:20:00,61.3,43.8,29.98,South,171,8.2,-999.0,52,0.00,,,0.00,SSEC-RIG,2013-05-08 08:20:00,
2013-05-08 03:25:00,61.2,43.7,29.98,SSE,165,8.5,-999.0,52,0.00,,,0.00,SSEC-RIG,2013-05-08 08:25:00,
2013-05-08 03:30:00,61.1,44.2,29.98,SSE,159,8.6,-999.0,53,0.00,,,0.00,SSEC-RIG,2013-05-08 08:30:00,
2013-05-08 03:35:00,61.0,43.9,29.98,SSE,165,8.9,-999.0,52,0.00,,,0.00,SSEC-RIG,2013-05-08 08:35:00,
2013-05-08 03:40:00,60.7,44.5,29.98,SSE,162,8.8,-999.0,54,0.00,,,0.00,SSEC-RIG,2013-05-08 08:40:00,
2013-05-08 03:45:00,60.4,45.2,29.98,SSE,159,8.3,-999.0,56,0.00,,,0.00,SSEC-RIG,2013-05-08 08:45:00,
2013-05-08 03:50:00,59.9,45.7,29.98,SSE,162,8.5,-999.0,58,0.00,,,0.00,SSEC-RIG,2013-05-08 08:50:00,
2013-05-08 03:55:00,59.9,44.3,29.98,SSE,164,8.5,-999.0,55,0.00,,,0.00,SSEC-RIG,2013-05-08 08:55:00,
2013-05-08 04:00:00,60.1,44.1,29.98,SSE,161,8.5,-999.0,54,0.00,,,0.00,SSEC-RIG,2013-05-08 09:00:00,
2013-05-08 04:10:00,59.8,46.2,29.98,SSE,155,8.2,-999.0,60,0.00,,,0.00,SSEC-RIG,2013-05-08 09:10:00,
2013-05-08 04:15:00,59.4,44.4,29.98,SSE,167,8.6,-999.0,57,0.00,,,0.00,SSEC-RIG,2013-05-08 09:15:00,
2013-05-08 04:20:00,59.5,44.2,29.98,SSE,160,8.6,-999.0,56,0.00,,,0.00,SSEC-RIG,2013-05-08 09:20:00,
2013-05-08 04:25:00,59.5,44.8,29.98,SSE,156,8.6,-999.0,57,0.00,,,0.00,SSEC-RIG,2013-05-08 09:25:00,
2013-05-08 04:30:00,59.1,46.3,29.98,SSE,152,7.8,-999.0,62,0.00,,,0.00,SSEC-RIG,2013-05-08 09:30:00,
2013-05-08 04:35:00,58.9,44.9,29.98,SSE,164,8.8,-999.0,59,0.00,,,0.00,SSEC-RIG,2013-05-08 09:35:00,
2013-05-08 04:40:00,58.9,45.6,29.99,SSE,155,9.0,-999.0,60,0.00,,,0.00,SSEC-RIG,2013-05-08 09:40:00,
2013-05-08 04:45:00,58.7,45.3,29.99,SSE,159,9.3,-999.0,60,0.00,,,0.00,SSEC-RIG,2013-05-08 09:45:00,
2013-05-08 04:50:00,58.6,46.5,29.99,SSE,155,8.8,-999.0,63,0.00,,,0.00,SSEC-RIG,2013-05-08 09:50:00,
2013-05-08 04:55:00,58.2,45.7,29.99,SSE,161,9.5,-999.0,62,0.00,,,0.00,SSEC-RIG,2013-05-08 09:55:00,
2013-05-08 05:00:00,58.2,45.3,29.99,SSE,161,9.6,-999.0,61,0.00,,,0.00,SSEC-RIG,2013-05-08 10:00:00,
2013-05-08 05:05:00,57.8,45.8,29.99,SSE,158,9.2,-999.0,63,0.00,,,0.00,SSEC-RIG,2013-05-08 10:05:00,
2013-05-08 05:10:00,57.5,46.3,29.99,SSE,157,8.5,-999.0,65,0.00,,,0.00,SSEC-RIG,2013-05-08 10:10:00,
2013-05-08 05:15:00,57.4,45.3,29.99,SSE,166,9.0,-999.0,63,0.00,,,0.00,SSEC-RIG,2013-05-08 10:15:00,
2013-05-08 05:20:00,57.3,45.2,29.99,SSE,164,9.0,-999.0,63,0.00,,,0.00,SSEC-RIG,2013-05-08 10:20:00,
2013-05-08 05:25:00,57.2,45.3,29.99,SSE,160,9.4,-999.0,63,0.00,,,0.00,SSEC-RIG,2013-05-08 10:25:00,
2013-05-08 05:30:00,57.0,45.2,29.99,SSE,163,9.4,-999.0,64,0.00,,,0.00,SSEC-RIG,2013-05-08 10:30:00,
2013-05-08 05:35:00,57.0,45.5,29.99,SSE,160,9.0,-999.0,65,0.00,,,0.00,SSEC-RIG,2013-05-08 10:35:00,
2013-05-08 05:40:00,56.7,45.2,29.99,SSE,167,8.8,-999.0,64,0.00,,,0.00,SSEC-RIG,2013-05-08 10:40:00,
2013-05-08 05:45:00,56.4,45.1,29.99,SSE,163,8.2,-999.0,65,0.00,,,0.00,SSEC-RIG,2013-05-08 10:45:00,
2013-05-08 05:50:00,56.3,44.9,30.00,South,170,7.7,-999.0,65,0.00,,,0.00,SSEC-RIG,2013-05-08 10:50:00,
2013-05-08 05:55:00,56.1,44.8,30.00,South,175,7.3,-999.0,65,0.00,,,0.00,SSEC-RIG,2013-05-08 10:55:00,
2013-05-08 06:00:00,56.1,44.8,30.00,South,174,7.1,-999.0,65,0.00,,,0.00,SSEC-RIG,2013-05-08 11:00:00,
2013-05-08 06:05:00,56.0,45.0,30.00,South,172,7.8,-999.0,65,0.00,,,0.00,SSEC-RIG,2013-05-08 11:05:00,
2013-05-08 06:10:00,55.9,45.0,30.00,South,173,8.2,-999.0,66,0.00,,,0.00,SSEC-RIG,2013-05-08 11:10:00,
2013-05-08 06:15:00,55.9,45.0,30.00,SSE,168,8.2,-999.0,66,0.00,,,0.00,SSEC-RIG,2013-05-08 11:15:00,
2013-05-08 06:20:00,55.7,45.1,30.00,SSE,166,8.1,-999.0,66,0.00,,,0.00,SSEC-RIG,2013-05-08 11:20:00,
2013-05-08 06:25:00,55.6,44.8,30.00,SSE,164,9.1,-999.0,66,0.00,,,0.00,SSEC-RIG,2013-05-08 11:25:00,
2013-05-08 06:30:00,55.8,44.6,30.00,South,169,9.7,-999.0,65,0.00,,,0.00,SSEC-RIG,2013-05-08 11:30:00,
2013-05-08 06:40:00,56.1,44.7,30.01,SSE,165,7.8,-999.0,65,0.00,,,0.00,SSEC-RIG,2013-05-08 11:40:00,
2013-05-08 06:45:00,56.2,44.5,30.01,South,169,8.5,-999.0,64,0.00,,,0.00,SSEC-RIG,2013-05-08 11:45:00,
2013-05-08 06:50:00,56.5,44.4,30.01,South,174,7.9,-999.0,63,0.00,,,0.00,SSEC-RIG,2013-05-08 11:50:00,
2013-05-08 06:55:00,56.4,44.5,30.01,South,169,7.1,-999.0,63,0.00,,,0.00,SSEC-RIG,2013-05-08 11:55:00,
2013-05-08 07:05:00,56.7,44.4,30.01,South,174,5.9,-999.0,62,0.00,,,0.00,SSEC-RIG,2013-05-08 12:05:00,
2013-05-08 07:10:00,56.8,44.5,30.01,SSE,167,5.7,-999.0,62,0.00,,,0.00,SSEC-RIG,2013-05-08 12:10:00,
2013-05-08 07:15:00,56.8,44.6,30.01,SSE,164,4.5,-999.0,63,0.00,,,0.00,SSEC-RIG,2013-05-08 12:15:00,
2013-05-08 07:20:00,57.1,44.8,30.01,South,173,4.6,-999.0,63,0.00,,,0.00,SSEC-RIG,2013-05-08 12:20:00,
2013-05-08 07:25:00,57.3,44.8,30.01,South,179,3.8,-999.0,62,0.00,,,0.00,SSEC-RIG,2013-05-08 12:25:00,
2013-05-08 07:35:00,57.9,44.8,30.02,South,184,4.1,-999.0,61,0.00,,,0.00,SSEC-RIG,2013-05-08 12:35:00,
2013-05-08 07:40:00,58.0,44.7,30.02,South,186,4.9,-999.0,60,0.00,,,0.00,SSEC-RIG,2013-05-08 12:40:00,
2013-05-08 07:45:00,58.3,44.3,30.02,South,180,4.8,-999.0,59,0.00,,,0.00,SSEC-RIG,2013-05-08 12:45:00,
2013-05-08 07:50:00,58.4,44.1,30.02,South,178,5.8,-999.0,58,0.00,,,0.00,SSEC-RIG,2013-05-08 12:50:00,
2013-05-08 07:55:00,58.3,44.1,30.02,South,180,5.7,-999.0,58,0.00,,,0.00,SSEC-RIG,2013-05-08 12:55:00,
2013-05-08 08:00:00,58.6,44.4,30.02,South,176,5.3,-999.0,58,0.00,,,0.00,SSEC-RIG,2013-05-08 13:00:00,
2013-05-08 08:05:00,59.3,44.6,30.02,South,171,2.9,-999.0,57,0.00,,,0.00,SSEC-RIG,2013-05-08 13:05:00,
2013-05-08 08:10:00,59.3,44.5,30.02,South,187,4.2,-999.0,57,0.00,,,0.00,SSEC-RIG,2013-05-08 13:10:00,
2013-05-08 08:15:00,59.5,44.5,30.02,South,187,5.0,-999.0,57,0.00,,,0.00,SSEC-RIG,2013-05-08 13:15:00,
2013-05-08 08:20:00,59.9,44.7,30.02,South,181,4.7,-999.0,56,0.00,,,0.00,SSEC-RIG,2013-05-08 13:20:00,
2013-05-08 08:25:00,60.4,45.0,30.02,South,191,5.1,-999.0,56,0.00,,,0.00,SSEC-RIG,2013-05-08 13:25:00,
2013-05-08 08:30:00,60.8,45.0,30.02,South,187,5.3,-999.0,55,0.00,,,0.00,SSEC-RIG,2013-05-08 13:30:00,
2013-05-08 08:35:00,61.4,45.0,30.02,SSW,194,3.7,-999.0,54,0.00,,,0.00,SSEC-RIG,2013-05-08 13:35:00,
2013-05-08 08:40:00,62.1,45.1,30.02,South,184,2.5,-999.0,53,0.00,,,0.00,SSEC-RIG,2013-05-08 13:40:00,
2013-05-08 08:45:00,62.3,45.1,30.02,SSW,198,4.5,-999.0,52,0.00,,,0.00,SSEC-RIG,2013-05-08 13:45:00,
2013-05-08 08:50:00,63.0,45.2,30.02,SSW,199,3.3,-999.0,51,0.00,,,0.00,SSEC-RIG,2013-05-08 13:50:00,
2013-05-08 08:55:00,63.5,45.0,30.02,SW,218,3.3,-999.0,50,0.00,,,0.00,SSEC-RIG,2013-05-08 13:55:00,
2013-05-08 09:00:00,64.3,44.8,30.02,SSW,192,3.3,-999.0,48,0.00,,,0.00,SSEC-RIG,2013-05-08 14:00:00,
2013-05-08 09:05:00,64.2,43.1,30.02,SSW,206,8.3,-999.0,45,0.00,,,0.00,SSEC-RIG,2013-05-08 14:05:00,
2013-05-08 09:10:00,64.6,42.8,30.02,SSW,206,7.0,-999.0,44,0.00,,,0.00,SSEC-RIG,2013-05-08 14:10:00,
2013-05-08 09:20:00,65.4,43.1,30.02,SSW,208,6.5,-999.0,44,0.00,,,0.00,SSEC-RIG,2013-05-08 14:20:00,
2013-05-08 09:25:00,65.6,43.1,30.02,SSW,199,6.7,-999.0,43,0.00,,,0.00,SSEC-RIG,2013-05-08 14:25:00,
2013-05-08 09:30:00,66.2,43.2,30.02,SSW,209,5.8,-999.0,42,0.00,,,0.00,SSEC-RIG,2013-05-08 14:30:00,
2013-05-08 09:35:00,66.2,43.3,30.02,SSW,198,5.5,-999.0,43,0.00,,,0.00,SSEC-RIG,2013-05-08 14:35:00,
2013-05-08 09:40:00,66.5,43.4,30.02,SSW,202,5.6,-999.0,42,0.00,,,0.00,SSEC-RIG,2013-05-08 14:40:00,
2013-05-08 09:45:00,66.9,43.7,30.01,SSW,193,5.0,-999.0,42,0.00,,,0.00,SSEC-RIG,2013-05-08 14:45:00,
2013-05-08 09:50:00,67.2,43.6,30.01,SSW,210,5.7,-999.0,42,0.00,,,0.00,SSEC-RIG,2013-05-08 14:50:00,
2013-05-08 09:55:00,67.7,43.9,30.01,SSW,199,5.2,-999.0,41,0.00,,,0.00,SSEC-RIG,2013-05-08 14:55:00,
2013-05-08 10:00:00,67.6,43.9,30.01,SW,217,4.3,-999.0,42,0.00,,,0.00,SSEC-RIG,2013-05-08 15:00:00,
2013-05-08 10:10:00,68.3,44.0,30.01,SSW,203,5.4,-999.0,41,0.00,,,0.00,SSEC-RIG,2013-05-08 15:10:00,
2013-05-08 10:20:00,69.1,43.7,30.01,SSW,196,5.3,-999.0,39,0.00,,,0.00,SSEC-RIG,2013-05-08 15:20:00,
2013-05-08 10:25:00,69.5,43.7,30.01,SSW,194,3.8,-999.0,39,0.00,,,0.00,SSEC-RIG,2013-05-08 15:25:00,
2013-05-08 10:30:00,69.7,43.3,30.01,SSW,206,3.9,-999.0,38,0.00,,,0.00,SSEC-RIG,2013-05-08 15:30:00,
2013-05-08 10:35:00,70.5,43.0,30.01,South,187,3.3,-999.0,36,0.00,,,0.00,SSEC-RIG,2013-05-08 15:35:00,
2013-05-08 10:40:00,71.1,42.7,30.01,SSW,204,2.5,-999.0,35,0.00,,,0.00,SSEC-RIG,2013-05-08 15:40:00,
2013-05-08 10:45:00,71.7,42.6,30.01,SE,137,0.9,-999.0,34,0.00,,,0.00,SSEC-RIG,2013-05-08 15:45:00,
2013-05-08 10:50:00,71.9,42.9,30.01,South,177,1.1,-999.0,34,0.00,,,0.00,SSEC-RIG,2013-05-08 15:50:00,
2013-05-08 10:55:00,71.3,44.2,30.01,SSW,212,1.0,-999.0,37,0.00,,,0.00,SSEC-RIG,2013-05-08 15:55:00,
2013-05-08 11:00:00,70.9,44.1,30.01,ENE,67,2.2,-999.0,37,0.00,,,0.00,SSEC-RIG,2013-05-08 16:00:00,
2013-05-08 11:05:00,70.9,44.8,30.01,NE,34,2.4,-999.0,38,0.00,,,0.00,SSEC-RIG,2013-05-08 16:05:00,
2013-05-08 11:10:00,71.7,44.6,30.01,NNE,33,2.4,-999.0,37,0.00,,,0.00,SSEC-RIG,2013-05-08 16:10:00,
2013-05-08 11:15:00,71.8,44.2,30.01,North,9,2.8,-999.0,36,0.00,,,0.00,SSEC-RIG,2013-05-08 16:15:00,
2013-05-08 11:20:00,71.9,43.8,30.01,North,8,2.7,-999.0,36,0.00,,,0.00,SSEC-RIG,2013-05-08 16:20:00,
2013-05-08 11:25:00,71.7,44.0,30.01,NNE,14,2.9,-999.0,36,0.00,,,0.00,SSEC-RIG,2013-05-08 16:25:00,
2013-05-08 11:30:00,71.8,43.4,30.01,NNE,29,3.2,-999.0,35,0.00,,,0.00,SSEC-RIG,2013-05-08 16:30:00,
2013-05-08 11:35:00,71.9,43.5,30.01,NE,35,3.2,-999.0,35,0.00,,,0.00,SSEC-RIG,2013-05-08 16:35:00,
2013-05-08 11:40:00,72.2,42.7,30.01,ENE,58,2.3,-999.0,34,0.00,,,0.00,SSEC-RIG,2013-05-08 16:40:00,
2013-05-08 11:45:00,73.4,43.0,30.01,ENE,63,2.1,-999.0,33,0.00,,,0.00,SSEC-RIG,2013-05-08 16:45:00,
2013-05-08 11:50:00,73.4,42.7,30.00,NE,56,3.7,-999.0,32,0.00,,,0.00,SSEC-RIG,2013-05-08 16:50:00,
2013-05-08 11:55:00,73.7,42.9,30.00,NE,42,3.8,-999.0,32,0.00,,,0.00,SSEC-RIG,2013-05-08 16:55:00,
2013-05-08 12:00:00,73.3,43.3,30.00,NNE,28,5.7,-999.0,33,0.00,,,0.00,SSEC-RIG,2013-05-08 17:00:00,
2013-05-08 12:05:00,73.2,43.5,30.00,NNE,29,4.9,-999.0,34,0.00,,,0.00,SSEC-RIG,2013-05-08 17:05:00,
2013-05-08 12:10:00,73.3,40.8,30.00,NNE,12,5.2,-999.0,30,0.00,,,0.00,SSEC-RIG,2013-05-08 17:10:00,
2013-05-08 12:15:00,73.5,40.2,30.00,NNE,20,5.0,-999.0,29,0.00,,,0.00,SSEC-RIG,2013-05-08 17:15:00,
2013-05-08 12:20:00,73.6,40.6,30.00,NNE,20,5.0,-999.0,30,0.00,,,0.00,SSEC-RIG,2013-05-08 17:20:00,
2013-05-08 12:25:00,73.7,40.8,30.00,NNE,31,4.8,-999.0,30,0.00,,,0.00,SSEC-RIG,2013-05-08 17:25:00,
2013-05-08 12:30:00,73.9,39.7,30.00,NE,36,4.9,-999.0,28,0.00,,,0.00,SSEC-RIG,2013-05-08 17:30:00,
2013-05-08 12:40:00,74.7,39.2,30.00,NE,34,4.6,-999.0,27,0.00,,,0.00,SSEC-RIG,2013-05-08 17:40:00,
2013-05-08 12:45:00,74.1,38.6,29.99,NE,37,5.2,-999.0,27,0.00,,,0.00,SSEC-RIG,2013-05-08 17:45:00,
2013-05-08 12:50:00,73.4,37.7,29.99,NE,35,5.6,-999.0,27,0.00,,,0.00,SSEC-RIG,2013-05-08 17:50:00,
2013-05-08 12:55:00,74.0,38.4,29.99,NE,35,5.0,-999.0,27,0.00,,,0.00,SSEC-RIG,2013-05-08 17:55:00,
2013-05-08 13:00:00,74.3,37.9,29.99,NE,36,4.1,-999.0,26,0.00,,,0.00,SSEC-RIG,2013-05-08 18:00:00,
2013-05-08 13:05:00,74.1,38.4,29.99,NE,38,4.9,-999.0,27,0.00,,,0.00,SSEC-RIG,2013-05-08 18:05:00,
2013-05-08 13:10:00,74.1,38.3,29.99,NNE,30,4.8,-999.0,27,0.00,,,0.00,SSEC-RIG,2013-05-08 18:10:00,
2013-05-08 13:15:00,74.0,38.3,29.98,NNE,30,5.2,-999.0,27,0.00,,,0.00,SSEC-RIG,2013-05-08 18:15:00,
2013-05-08 13:20:00,73.7,38.7,29.98,NE,42,5.2,-999.0,27,0.00,,,0.00,SSEC-RIG,2013-05-08 18:20:00,
2013-05-08 13:25:00,73.9,38.7,29.98,NE,50,4.5,-999.0,27,0.00,,,0.00,SSEC-RIG,2013-05-08 18:25:00,
2013-05-08 13:30:00,74.4,38.9,29.98,NE,49,2.7,-999.0,27,0.00,,,0.00,SSEC-RIG,2013-05-08 18:30:00,
2013-05-08 13:35:00,74.6,38.5,29.98,ENE,73,2.5,-999.0,26,0.00,,,0.00,SSEC-RIG,2013-05-08 18:35:00,
2013-05-08 13:40:00,74.9,37.4,29.98,ENE,60,3.2,-999.0,25,0.00,,,0.00,SSEC-RIG,2013-05-08 18:40:00,
2013-05-08 13:45:00,75.4,36.6,29.98,NE,43,3.5,-999.0,24,0.00,,,0.00,SSEC-RIG,2013-05-08 18:45:00,
2013-05-08 13:50:00,74.9,35.7,29.98,NNE,13,5.2,-999.0,23,0.00,,,0.00,SSEC-RIG,2013-05-08 18:50:00,
2013-05-08 13:55:00,75.2,35.7,29.98,North,11,3.3,-999.0,23,0.00,,,0.00,SSEC-RIG,2013-05-08 18:55:00,
2013-05-08 14:00:00,75.6,36.2,29.98,NNE,16,3.1,-999.0,23,0.00,,,0.00,SSEC-RIG,2013-05-08 19:00:00,
2013-05-08 14:05:00,75.6,36.9,29.98,North,359,2.0,-999.0,24,0.00,,,0.00,SSEC-RIG,2013-05-08 19:05:00,
2013-05-08 14:10:00,75.4,36.7,29.98,NNE,15,3.3,-999.0,24,0.00,,,0.00,SSEC-RIG,2013-05-08 19:10:00,
2013-05-08 14:20:00,75.6,37.3,29.98,NNW,335,2.8,-999.0,24,0.00,,,0.00,SSEC-RIG,2013-05-08 19:20:00,
2013-05-08 14:25:00,75.2,37.0,29.98,NW,323,2.6,-999.0,24,0.00,,,0.00,SSEC-RIG,2013-05-08 19:25:00,
2013-05-08 14:30:00,75.1,37.2,29.98,NNW,328,3.2,-999.0,25,0.00,,,0.00,SSEC-RIG,2013-05-08 19:30:00,
2013-05-08 14:35:00,75.2,37.6,29.98,NNW,344,2.6,-999.0,25,0.00,,,0.00,SSEC-RIG,2013-05-08 19:35:00,
2013-05-08 14:40:00,76.3,38.1,29.97,North,9,3.5,-999.0,25,0.00,,,0.00,SSEC-RIG,2013-05-08 19:40:00,
2013-05-08 14:45:00,76.2,37.9,29.97,NNE,20,2.4,-999.0,25,0.00,,,0.00,SSEC-RIG,2013-05-08 19:45:00,
2013-05-08 14:50:00,75.8,37.6,29.97,SSE,149,1.5,-999.0,25,0.00,,,0.00,SSEC-RIG,2013-05-08 19:50:00,
2013-05-08 14:55:00,75.8,37.6,29.97,NNE,28,2.2,-999.0,24,0.00,,,0.00,SSEC-RIG,2013-05-08 19:55:00,
2013-05-08 15:00:00,76.8,38.1,29.97,ESE,119,1.7,-999.0,24,0.00,,,0.00,SSEC-RIG,2013-05-08 20:00:00,
2013-05-08 15:05:00,76.3,37.9,29.97,South,173,2.3,-999.0,24,0.00,,,0.00,SSEC-RIG,2013-05-08 20:05:00,
2013-05-08 15:10:00,76.1,38.0,29.97,SSE,160,4.6,-999.0,25,0.00,,,0.00,SSEC-RIG,2013-05-08 20:10:00,
2013-05-08 15:15:00,76.5,38.6,29.97,SSE,156,3.0,-999.0,25,0.00,,,0.00,SSEC-RIG,2013-05-08 20:15:00,
2013-05-08 15:20:00,77.5,38.5,29.96,SSW,203,2.5,-999.0,24,0.00,,,0.00,SSEC-RIG,2013-05-08 20:20:00,
2013-05-08 15:25:00,77.7,38.2,29.96,East,97,3.6,-999.0,24,0.00,,,0.00,SSEC-RIG,2013-05-08 20:25:00,
2013-05-08 15:30:00,77.2,38.5,29.96,ENE,78,3.7,-999.0,24,0.00,,,0.00,SSEC-RIG,2013-05-08 20:30:00,
2013-05-08 15:35:00,76.6,39.6,29.96,ESE,112,4.4,-999.0,26,0.00,,,0.00,SSEC-RIG,2013-05-08 20:35:00,
2013-05-08 15:40:00,76.1,38.1,29.96,ENE,77,3.9,-999.0,25,0.00,,,0.00,SSEC-RIG,2013-05-08 20:40:00,
2013-05-08 15:50:00,76.0,37.8,29.95,NE,50,5.2,-999.0,25,0.00,,,0.00,SSEC-RIG,2013-05-08 20:50:00,
2013-05-08 15:55:00,75.9,37.8,29.95,NE,54,4.1,-999.0,25,0.00,,,0.00,SSEC-RIG,2013-05-08 20:55:00,
2013-05-08 16:00:00,76.4,38.5,29.95,ENE,61,4.2,-999.0,25,0.00,,,0.00,SSEC-RIG,2013-05-08 21:00:00,
2013-05-08 16:05:00,77.5,38.6,29.95,South,182,1.4,-999.0,24,0.00,,,0.00,SSEC-RIG,2013-05-08 21:05:00,
2013-05-08 16:10:00,78.4,38.6,29.95,SSW,193,1.6,-999.0,23,0.00,,,0.00,SSEC-RIG,2013-05-08 21:10:00,
2013-05-08 16:15:00,77.2,37.9,29.95,WNW,297,3.1,-999.0,24,0.00,,,0.00,SSEC-RIG,2013-05-08 21:15:00,
2013-05-08 16:20:00,76.5,38.8,29.95,North,349,3.9,-999.0,25,0.00,,,0.00,SSEC-RIG,2013-05-08 21:20:00,
2013-05-08 16:30:00,76.3,38.6,29.95,NNW,343,4.1,-999.0,25,0.00,,,0.00,SSEC-RIG,2013-05-08 21:30:00,
2013-05-08 16:35:00,76.2,38.4,29.95,North,358,4.3,-999.0,25,0.00,,,0.00,SSEC-RIG,2013-05-08 21:35:00,
2013-05-08 16:40:00,76.2,38.6,29.95,North,4,4.1,-999.0,25,0.00,,,0.00,SSEC-RIG,2013-05-08 21:40:00,
2013-05-08 16:45:00,76.2,38.4,29.95,North,4,3.7,-999.0,25,0.00,,,0.00,SSEC-RIG,2013-05-08 21:45:00,
2013-05-08 16:50:00,76.3,38.5,29.95,North,2,4.3,-999.0,25,0.00,,,0.00,SSEC-RIG,2013-05-08 21:50:00,
2013-05-08 16:55:00,76.2,38.4,29.95,NNE,23,4.6,-999.0,25,0.00,,,0.00,SSEC-RIG,2013-05-08 21:55:00,
2013-05-08 17:00:00,76.4,38.5,29.95,NNE,19,3.4,-999.0,25,0.00,,,0.00,SSEC-RIG,2013-05-08 22:00:00,
2013-05-08 17:05:00,76.6,38.5,29.95,NNE,29,2.7,-999.0,25,0.00,,,0.00,SSEC-RIG,2013-05-08 22:05:00,
2013-05-08 17:10:00,76.6,38.4,29.94,NE,45,2.0,-999.0,25,0.00,,,0.00,SSEC-RIG,2013-05-08 22:10:00,
2013-05-08 17:15:00,76.5,38.4,29.94,NE,39,2.5,-999.0,25,0.00,,,0.00,SSEC-RIG,2013-05-08 22:15:00,
2013-05-08 17:20:00,77.6,38.9,29.94,NNW,328,1.4,-999.0,24,0.00,,,0.00,SSEC-RIG,2013-05-08 22:20:00,
2013-05-08 17:25:00,77.6,38.3,29.94,SSE,158,1.3,-999.0,24,0.00,,,0.00,SSEC-RIG,2013-05-08 22:25:00,
2013-05-08 17:30:00,77.4,38.6,29.94,SSW,195,2.9,-999.0,24,0.00,,,0.00,SSEC-RIG,2013-05-08 22:30:00,
2013-05-08 17:35:00,77.4,37.1,29.94,SW,216,6.1,-999.0,23,0.00,,,0.00,SSEC-RIG,2013-05-08 22:35:00,
2013-05-08 17:40:00,76.6,37.0,29.94,SW,224,6.2,-999.0,23,0.00,,,0.00,SSEC-RIG,2013-05-08 22:40:00,
2013-05-08 17:45:00,76.3,37.2,29.94,SW,220,2.6,-999.0,24,0.00,,,0.00,SSEC-RIG,2013-05-08 22:45:00,
2013-05-08 17:50:00,77.0,37.3,29.94,SSW,200,1.4,-999.0,23,0.00,,,0.00,SSEC-RIG,2013-05-08 22:50:00,
2013-05-08 18:00:00,77.2,37.4,29.94,SSW,195,4.4,-999.0,23,0.00,,,0.00,SSEC-RIG,2013-05-08 23:00:00,
2013-05-08 18:10:00,76.6,37.8,29.94,SW,217,6.9,-999.0,24,0.00,,,0.00,SSEC-RIG,2013-05-08 23:10:00,
2013-05-08 18:15:00,76.5,37.7,29.94,SW,230,6.1,-999.0,24,0.00,,,0.00,SSEC-RIG,2013-05-08 23:15:00,
2013-05-08 18:20:00,76.2,37.4,29.94,SW,234,7.0,-999.0,24,0.00,,,0.00,SSEC-RIG,2013-05-08 23:20:00,
2013-05-08 18:25:00,76.3,37.7,29.94,SW,219,6.5,-999.0,24,0.00,,,0.00,SSEC-RIG,2013-05-08 23:25:00,
2013-05-08 18:35:00,76.4,37.7,29.94,SW,220,6.6,-999.0,24,0.00,,,0.00,SSEC-RIG,2013-05-08 23:35:00,
2013-05-08 18:40:00,76.4,37.7,29.94,SW,220,5.7,-999.0,24,0.00,,,0.00,SSEC-RIG,2013-05-08 23:40:00,
2013-05-08 18:45:00,76.5,37.9,29.94,SW,214,4.4,-999.0,24,0.00,,,0.00,SSEC-RIG,2013-05-08 23:45:00,
2013-05-08 18:50:00,76.3,37.4,29.94,SW,223,6.1,-999.0,24,0.00,,,0.00,SSEC-RIG,2013-05-08 23:50:00,
2013-05-08 18:55:00,76.4,38.0,29.94,SW,219,5.6,-999.0,24,0.00,,,0.00,SSEC-RIG,2013-05-08 23:55:00,
2013-05-08 19:00:00,76.2,37.9,29.94,SW,225,6.7,-999.0,24,0.00,,,0.00,SSEC-RIG,2013-05-09 00:00:00,
2013-05-08 19:05:00,76.1,38.3,29.94,SW,224,6.3,-999.0,25,0.00,,,0.00,SSEC-RIG,2013-05-09 00:05:00,
2013-05-08 19:10:00,76.0,38.2,29.94,SW,233,7.1,-999.0,25,0.00,,,0.00,SSEC-RIG,2013-05-09 00:10:00,
2013-05-08 19:15:00,75.9,38.3,29.94,SW,232,6.6,-999.0,25,0.00,,,0.00,SSEC-RIG,2013-05-09 00:15:00,
2013-05-08 19:20:00,75.8,38.4,29.94,SW,223,6.1,-999.0,25,0.00,,,0.00,SSEC-RIG,2013-05-09 00:20:00,
2013-05-08 19:25:00,75.7,38.7,29.94,SW,226,5.7,-999.0,26,0.00,,,0.00,SSEC-RIG,2013-05-09 00:25:00,
2013-05-08 19:30:00,75.6,38.8,29.94,SW,224,5.8,-999.0,26,0.00,,,0.00,SSEC-RIG,2013-05-09 00:30:00,
2013-05-08 19:35:00,75.6,38.6,29.94,SW,222,6.0,-999.0,26,0.00,,,0.00,SSEC-RIG,2013-05-09 00:35:00,
2013-05-08 19:40:00,75.5,38.6,29.94,SW,221,5.9,-999.0,26,0.00,,,0.00,SSEC-RIG,2013-05-09 00:40:00,
2013-05-08 19:45:00,75.6,38.3,29.94,SW,225,6.3,-999.0,25,0.00,,,0.00,SSEC-RIG,2013-05-09 00:45:00,
2013-05-08 19:50:00,75.5,38.5,29.94,SW,223,6.9,-999.0,25,0.00,,,0.00,SSEC-RIG,2013-05-09 00:50:00,
2013-05-08 19:55:00,75.5,38.5,29.94,SW,229,7.4,-999.0,25,0.00,,,0.00,SSEC-RIG,2013-05-09 00:55:00,
2013-05-08 20:05:00,75.3,39.1,29.94,SW,220,8.0,-999.0,26,0.00,,,0.00,SSEC-RIG,2013-05-09 01:05:00,
2013-05-08 20:10:00,75.0,39.5,29.94,SW,227,7.7,-999.0,27,0.00,,,0.00,SSEC-RIG,2013-05-09 01:10:00,
2013-05-08 20:15:00,74.6,40.1,29.94,WSW,241,6.9,-999.0,28,0.00,,,0.00,SSEC-RIG,2013-05-09 01:15:00,
2013-05-08 20:20:00,74.6,40.2,29.94,WSW,245,6.5,-999.0,28,0.00,,,0.00,SSEC-RIG,2013-05-09 01:20:00,
2013-05-08 20:25:00,74.7,40.5,29.94,WSW,244,7.4,-999.0,28,0.00,,,0.00,SSEC-RIG,2013-05-09 01:25:00,
2013-05-08 20:30:00,74.6,40.9,29.94,WSW,243,7.7,-999.0,29,0.00,,,0.00,SSEC-RIG,2013-05-09 01:30:00,
2013-05-08 20:40:00,74.6,41.3,29.95,SW,235,7.8,-999.0,29,0.00,,,0.00,SSEC-RIG,2013-05-09 01:40:00,
2013-05-08 20:45:00,74.5,41.3,29.95,SW,234,7.4,-999.0,30,0.00,,,0.00,SSEC-RIG,2013-05-09 01:45:00,
2013-05-08 20:50:00,74.6,41.5,29.95,SW,236,7.1,-999.0,30,0.00,,,0.00,SSEC-RIG,2013-05-09 01:50:00,
2013-05-08 20:55:00,74.2,41.9,29.95,SW,235,8.4,-999.0,31,0.00,,,0.00,SSEC-RIG,2013-05-09 01:55:00,
2013-05-08 21:00:00,73.8,42.0,29.95,WSW,242,9.0,-999.0,31,0.00,,,0.00,SSEC-RIG,2013-05-09 02:00:00,
2013-05-08 21:10:00,73.3,42.3,29.95,WSW,256,9.3,-999.0,32,0.00,,,0.00,SSEC-RIG,2013-05-09 02:10:00,
2013-05-08 21:15:00,73.2,42.5,29.95,WSW,256,9.0,-999.0,32,0.00,,,0.00,SSEC-RIG,2013-05-09 02:15:00,
2013-05-08 21:20:00,73.1,42.7,29.96,WSW,255,9.0,-999.0,33,0.00,,,0.00,SSEC-RIG,2013-05-09 02:20:00,
2013-05-08 21:25:00,73.1,42.7,29.95,WSW,257,9.4,-999.0,33,0.00,,,0.00,SSEC-RIG,2013-05-09 02:25:00,
2013-05-08 21:30:00,72.9,42.8,29.96,WSW,257,8.9,-999.0,33,0.00,,,0.00,SSEC-RIG,2013-05-09 02:30:00,
2013-05-08 21:35:00,72.5,43.0,29.96,WSW,249,7.3,-999.0,34,0.00,,,0.00,SSEC-RIG,2013-05-09 02:35:00,
2013-05-08 21:40:00,72.4,43.0,29.96,WSW,244,7.4,-999.0,34,0.00,,,0.00,SSEC-RIG,2013-05-09 02:40:00,
2013-05-08 21:50:00,72.3,43.1,29.96,WSW,249,8.2,-999.0,34,0.00,,,0.00,SSEC-RIG,2013-05-09 02:50:00,
2013-05-08 22:00:00,71.6,43.4,29.96,WSW,241,6.7,-999.0,35,0.00,,,0.00,SSEC-RIG,2013-05-09 03:00:00,
2013-05-08 22:10:00,71.3,43.5,29.96,WSW,240,6.5,-999.0,36,0.00,,,0.00,SSEC-RIG,2013-05-09 03:10:00,
2013-05-08 22:15:00,71.4,43.3,29.95,WSW,247,7.1,-999.0,36,0.00,,,0.00,SSEC-RIG,2013-05-09 03:15:00,
2013-05-08 22:20:00,71.6,43.1,29.95,WSW,252,7.5,-999.0,35,0.00,,,0.00,SSEC-RIG,2013-05-09 03:20:00,
2013-05-08 22:25:00,71.4,43.1,29.95,WSW,250,6.6,-999.0,35,0.00,,,0.00,SSEC-RIG,2013-05-09 03:25:00,
2013-05-08 22:30:00,70.7,43.7,29.95,SW,234,5.1,-999.0,37,0.00,,,0.00,SSEC-RIG,2013-05-09 03:30:00,
2013-05-08 22:35:00,70.5,44.1,29.95,SSW,212,3.8,-999.0,38,0.00,,,0.00,SSEC-RIG,2013-05-09 03:35:00,
2013-05-08 22:40:00,69.5,46.4,29.95,SE,126,6.7,-999.0,43,0.00,,,0.00,SSEC-RIG,2013-05-09 03:40:00,
2013-05-08 22:45:00,68.6,47.0,29.95,ESE,119,8.2,-999.0,45,0.00,,,0.00,SSEC-RIG,2013-05-09 03:45:00,
2013-05-08 22:50:00,69.5,50.4,29.95,SE,128,4.5,-999.0,50,0.00,,,0.00,SSEC-RIG,2013-05-09 03:50:00,
2013-05-08 22:55:00,69.2,48.4,29.95,ESE,113,6.4,-999.0,47,0.00,,,0.00,SSEC-RIG,2013-05-09 03:55:00,
2013-05-08 23:00:00,68.3,50.3,29.95,SE,132,8.6,-999.0,52,0.00,,,0.00,SSEC-RIG,2013-05-09 04:00:00,
2013-05-08 23:05:00,68.0,48.9,29.95,SE,132,9.7,-999.0,50,0.00,,,0.00,SSEC-RIG,2013-05-09 04:05:00,
2013-05-08 23:10:00,67.5,47.7,29.95,SE,129,9.6,-999.0,48,0.00,,,0.00,SSEC-RIG,2013-05-09 04:10:00,
2013-05-08 23:15:00,67.4,49.2,29.95,SE,133,7.4,-999.0,51,0.00,,,0.00,SSEC-RIG,2013-05-09 04:15:00,
2013-05-08 23:20:00,67.4,49.5,29.95,SE,128,5.1,-999.0,52,0.00,,,0.00,SSEC-RIG,2013-05-09 04:20:00,
2013-05-08 23:25:00,67.3,50.1,29.95,SE,132,4.7,-999.0,53,0.00,,,0.00,SSEC-RIG,2013-05-09 04:25:00,
2013-05-08 23:30:00,67.2,50.0,29.95,SSE,151,6.9,-999.0,53,0.00,,,0.00,SSEC-RIG,2013-05-09 04:30:00,
2013-05-08 23:35:00,66.5,47.9,29.95,SSE,161,8.7,-999.0,50,0.00,,,0.00,SSEC-RIG,2013-05-09 04:35:00,
2013-05-08 23:40:00,66.3,47.1,29.95,SSE,157,9.2,-999.0,49,0.00,,,0.00,SSEC-RIG,2013-05-09 04:40:00,
2013-05-08 23:45:00,66.2,47.2,29.95,SSE,164,7.8,-999.0,50,0.00,,,0.00,SSEC-RIG,2013-05-09 04:45:00,
2013-05-08 23:50:00,66.0,47.3,29.95,South,177,7.0,-999.0,50,0.00,,,0.00,SSEC-RIG,2013-05-09 04:50:00,
2013-05-08 23:55:00,65.9,47.1,29.95,South,178,7.7,-999.0,50,0.00,,,0.00,SSEC-RIG,2013-05-09 04:55:00,